Regional Weather Roundup
Issued by NWS

Home | Current Version | Previous Version | Graphics & Text | Print | Product List | Glossary On
Versions: 1 2 3 4 5 6 7 8 9 10 11 12 13 14 15 16 17 18 19 20 21 22 23 24 25 26 27 28 29 30 31 32 33 34 35 36 37 38 39 40 41 42 43 44 45 46 47 48 49 50
000
ASUS45 KABQ 211610
RWRNM
WEATHER ROUNDUP FOR NEW MEXICO
NATIONAL WEATHER SERVICE ALBUQUERQUE NM
1000 AM MDT TUE OCT 21 2014

NOTE: "FAIR" MEANS FEW OR NO CLOUDS BELOW 12,000 FEET AGL WITH NO
       SIGNIFICANT WEATHER OR OBSTRUCTIONS TO VISION.

      THIS PRODUCT IS RELEASED AS TWO VERSIONS.  ONE VERSION NEAR
      THE TOP OF THE HOUR CONTAINING PRELIMINARY DATA FROM ALBUQUERQUE
      AND OTHER STATIONS.  A FINAL VERSION WITH ADDITIONAL DATA IS
      ISSUED ABOUT 10 MINUTES AFTER THE HOUR.

NMZ501-503-504-510>518-211700-
NORTHWEST PLATEAU/NORTHCENTRAL MOUNTAINS

CITY           SKY/WX    TMP DP  RH WIND       PRES   REMARKS
FARMINGTON     CLOUDY    56  45  66 MISG      30.15R
LOS ALAMOS     CLOUDY    50  45  82 CALM      30.25S
SANTA FE       CLOUDY    53  48  83 E8        30.21F
TAOS           CLOUDY    46  37  71 CALM      30.25F
ANGEL FIRE     CLOUDY    37  35  93 CALM      30.31S

$$
NMZ402-403-502-505>509-211700-
WESTCENTRAL MOUNTAINS/SOUTHWEST MOUNTAINS

CITY           SKY/WX    TMP DP  RH WIND       PRES   REMARKS
GALLUP         MOSUNNY   48  42  80 CALM      30.20S
GRANTS         PTSUNNY   52  43  71 SE7       30.23S
SILVER CITY    PTSUNNY   59  50  72 SE9       30.18R

$$
NMZ407-409-411-412-211700-
SOUTHERN DESERTS

CITY           SKY/WX    TMP DP  RH WIND       PRES   REMARKS
LORDSBURG      PTSUNNY   59  52  77 MISG      30.11R
DEMING         SUNNY     61  56  83 E8        30.13R
LAS CRUCES     CLOUDY    60  54  79 CALM      30.14R
HOLLOMAN AFB   PTSUNNY   56  56 100 CALM      30.13R
T OR C         CLOUDY    56  51  84 N5        30.15R

$$
NMZ519>523-211700-
CENTRAL VALLEYS/CENTRAL HIGHLANDS

CITY           SKY/WX    TMP DP  RH WIND       PRES   REMARKS
ALBUQUERQUE    MOSUNNY   56  48  74 SW7       30.17S
DOUBLE EAGLE   MOSUNNY   55  46  71 CALM      30.19S
MORIARTY ARPT  FAIR      56  48  74 SE6       30.23R
CLINES CORNERS MOSUNNY   54  45  71 S6        30.23R
BELEN          FAIR      58  48  69 W5        30.17F
SOCORRO        FAIR      58  51  75 N5        30.17R

$$
NMZ524>526-539-540-211700-
SOUTHCENTRAL MOUNTAINS

CITY           SKY/WX    TMP DP  RH WIND       PRES   REMARKS
RUIDOSO        CLOUDY    50  48  93 SE5       30.25S FOG

$$
NMZ527>531-211700-
NORTHEAST HIGHLANDS/NORTHEAST PLAINS

CITY           SKY/WX    TMP DP  RH WIND       PRES   REMARKS
LAS VEGAS      CLOUDY    52  46  80 S8        30.24S
RATON          PTSUNNY   54  43  66 VRB5      30.20S
CLAYTON        SUNNY     66  46  48 SW14      30.15F

$$
NMZ532>537-211700-
EASTCENTRAL PLAINS

CITY           SKY/WX    TMP DP  RH WIND       PRES   REMARKS
TUCUMCARI      SUNNY     66  50  56 VRB5      30.15S
CANNON AFB     SUNNY     65  53  65 SE6       30.17S
CLOVIS AIRPORT NOT AVBL

$$
NMZ028-029-538-211700-
SOUTHEAST PLAINS

CITY           SKY/WX    TMP DP  RH WIND       PRES   REMARKS
ROSWELL        CLOUDY    61  57  87 N5        30.14R
CARLSBAD       CLOUDY    63  59  87 S3        30.11S
HOBBS          PTSUNNY   63  59  88 E9        30.16S


$$



USA.gov is the U.S. government's official web portal to all federal, state and local government web resources and services.